ASTEX 1

Satellite information

Favourite Embed

Satellite Type and Status

PAYLOADIN ORBIT

Key statistics

Satellite ASTEX 1 at a glance.

Uptime

19781

Days in orbit

Revolutions

≈ 14.5

Per day

Orbit

SSO

Sun Synchronous Orbit

Inclination

92.7

Latest

Satellite identification and parameters

Extended collection of information and parameters for ASTEX 1.

Object identification

Identified? True

Debris? False

Object name: ASTEX 1

International designator: 1971-089A

Object number (NORAD): 5560

Object ID (CCSDS): 5560

Country: UNITED STATES OF AMERICA (US)

Current information (Y/N): Y

RCS size: LARGE

Orbital parameters

Period: 99.266 minutes

Inclination: 92.7137 deg

SMA: 7101.69 km

Apoapsis: 735.255 km

Periapsis: 711.854 km

RAAN: 123.4738 deg

Eccentricy: 0.0016476

Argument of periapsis: 27.2877 deg

Mean anomaly: 332.9191 deg

Mean motion: 14.50641956 rev/day

Mean motion (dot): 0.00000922 rev/day2

B* drag term: 0.00023485648 1/REarth

Two-line elements (TLE)

Creation date: Dec. 12, 2025, 10:14 a.m.

Reference frame: TEME

Reference center: EARTH

Epoch: Dec. 12, 2025, 6:59 a.m. UTC

TLE line 0: 0 ASTEX 1

TLE line 1: 1 05560U 71089A 25346.29110061 .00000922 00000-0 23486-3 0 9990

TLE line 2: 2 05560 92.7137 123.4738 0016476 27.2877 332.9191 14.50641956849631

Live tracking on map

Real-time ground track for satellite ASTEX 1.

In-orbit conjunctions

A list of the most updated potential collisions computed for object ASTEX 1.

Target Orbit TCA Probability of collision Miss distance Type
CZ-6A DEB LEO 2025-11-14 12:24:02 0.0001880813 327.0 (m) DEBRIS
CZ-6A DEB LEO 2025-09-20 01:57:46 0.001772786 158.0 (m) DEBRIS
FENGYUN 1C DEB SSO 2025-09-10 08:30:27 0.0002411269 744.0 (m) DEBRIS
DMSP 5D-2 F13 DEB SSO 2025-02-08 15:26:20 0.0001164094 84.0 (m) DEBRIS
DELTA 2 R/B LEO 2025-01-17 19:38:28 0.000821425 549.0 (m) ROCKET BODY

Associated space launch

USAF satellite designed to test advanced development payloads

ASTEX 1 was lifted into orbit during the mission ‘Thorad SLV-2G Agena D | ASTEX’, on board a Thorad SLV-2G Agena D space rocket.

The launch took place on Oct. 17, 1971, 1:36 p.m. from Space Launch Complex 1W.

For more information about the launch, click the button.

Launch to space Thorad SLV-2G Agena D | ASTEX
Thorad SLV-2G Agena D | ASTEX

Agency: N/A

Status: Launch Successful

Launch date: Oct. 17, 1971, 1:36 p.m. UTC

Rocket: Thorad SLV-2G Agena D

Launch pad: Space Launch Complex 1W

Location: Vandenberg SFB, CA, USA

...

Latest news about this satellite

There are no fresh news available about this satellite. Check back as we update our databases every day.


Newsletter sign-up

Weekly statistics, charts and insights to help you stay on top of the space industry.